Location: Cruquius
(52.3348°N, 4.6319°E)
Time: 05:44:53
(UTC+00:00)

NOSS 3-3 (C) - Pass Details

Date: 30 September 2021
Orbit: 801 x 1411 km, 63.4° (Epoch: 05 October)

Event Time Altitude Azimuth Distance (km) Brightness Sun altitude
Rises 18:05:50 0° 312° (NW) 3,868 8.1 -7.7°
Reaches altitude 10° 18:08:21 10° 314° (NW) 2,993 7.4 -8.1°
Maximum altitude 18:15:38 83° 43° (NE) 1,254 4.5 -9.2°
Drops below altitude 10° 18:23:59 10° 132° (SE) 3,396 6.3 -10.5°
Enters shadow 18:25:21 - 133° (SE) 3,863 6.6 -10.7°
